Time,TemperatureF,DewpointF,PressureIn,WindDirection,WindDirectionDegrees,WindSpeedMPH,WindSpeedGustMPH,Humidity,HourlyPrecipIn,Conditions,Clouds,dailyrainin,SoftwareType,DateUTC
2013-05-28 08:35:00,71.5,70.0,29.53,South,185,3.0,3.0,95,0.00,,,0.01,Wunderground v.1.15,2013-05-28 13:35:00,
2013-05-28 08:40:00,71.3,69.8,29.53,South,182,4.0,7.0,95,0.00,,,0.01,Wunderground v.1.15,2013-05-28 13:40:00,
2013-05-28 08:45:00,71.5,69.7,29.53,South,185,5.0,11.0,94,0.00,,,0.01,Wunderground v.1.15,2013-05-28 13:45:00,
2013-05-28 08:50:00,71.8,70.0,29.53,SE,137,4.0,11.0,94,0.00,,,0.01,Wunderground v.1.15,2013-05-28 13:50:00,
2013-05-28 08:55:00,72.0,70.2,29.53,South,175,5.0,5.0,94,0.00,,,0.01,Wunderground v.1.15,2013-05-28 13:55:00,
2013-05-28 09:00:00,72.1,70.0,29.53,SSE,160,4.0,11.0,93,0.00,,,0.01,Wunderground v.1.15,2013-05-28 14:00:00,
2013-05-28 09:05:00,72.5,70.4,29.53,SSE,147,4.0,11.0,93,0.00,,,0.01,Wunderground v.1.15,2013-05-28 14:05:00,
2013-05-28 09:10:00,72.8,70.3,29.53,South,174,4.0,4.0,92,0.00,,,0.01,Wunderground v.1.15,2013-05-28 14:10:00,
2013-05-28 09:20:00,73.2,70.4,29.52,SSE,157,4.0,14.0,91,0.00,,,0.01,Wunderground v.1.15,2013-05-28 14:20:00,
2013-05-28 09:30:00,73.9,70.5,29.52,SE,140,5.0,14.0,89,0.00,,,0.01,Wunderground v.1.15,2013-05-28 14:30:00,
2013-05-28 09:35:00,74.4,70.9,29.52,South,184,6.0,14.0,89,0.00,,,0.01,Wunderground v.1.15,2013-05-28 14:35:00,
2013-05-28 09:45:00,74.9,70.8,29.52,SSE,147,7.0,14.0,87,0.00,,,0.01,Wunderground v.1.15,2013-05-28 14:45:00,
2013-05-28 09:55:00,75.3,70.8,29.52,SSE,167,8.0,14.0,86,0.00,,,0.01,Wunderground v.1.15,2013-05-28 14:55:00,
2013-05-28 10:00:00,75.4,70.9,29.52,South,182,9.0,9.0,86,0.00,,,0.01,Wunderground v.1.15,2013-05-28 15:00:00,
2013-05-28 10:10:00,76.0,70.8,29.52,SSW,209,11.0,11.0,84,0.00,,,0.01,Wunderground v.1.15,2013-05-28 15:10:00,
2013-05-28 10:15:00,76.1,71.3,29.52,SSW,209,10.0,14.0,85,0.00,,,0.01,Wunderground v.1.15,2013-05-28 15:15:00,
2013-05-28 10:25:00,76.3,70.8,29.51,SSW,213,11.0,13.0,83,0.00,,,0.01,Wunderground v.1.15,2013-05-28 15:25:00,
2013-05-28 10:30:00,76.3,70.8,29.51,SSW,205,13.0,13.0,83,0.00,,,0.01,Wunderground v.1.15,2013-05-28 15:30:00,
2013-05-28 10:40:00,76.7,71.1,29.51,SW,219,11.0,11.0,83,0.00,,,0.01,Wunderground v.1.15,2013-05-28 15:40:00,
2013-05-28 10:50:00,76.7,70.8,29.51,South,191,13.0,13.0,82,0.00,,,0.01,Wunderground v.1.15,2013-05-28 15:50:00,
2013-05-28 11:00:00,77.0,70.7,29.51,South,171,10.0,10.0,81,0.00,,,0.01,Wunderground v.1.15,2013-05-28 16:00:00,
2013-05-28 11:05:00,77.2,70.5,29.51,SW,219,9.0,14.0,80,0.00,,,0.01,Wunderground v.1.15,2013-05-28 16:05:00,
2013-05-28 11:15:00,77.2,70.9,29.51,South,189,11.0,22.0,81,0.00,,,0.01,Wunderground v.1.15,2013-05-28 16:15:00,
2013-05-28 11:20:00,77.4,71.1,29.52,SW,226,12.0,12.0,81,0.00,,,0.01,Wunderground v.1.15,2013-05-28 16:20:00,
2013-05-28 11:25:00,77.6,70.9,29.52,SSW,208,11.0,15.0,80,0.00,,,0.01,Wunderground v.1.15,2013-05-28 16:25:00,
2013-05-28 11:35:00,77.6,71.3,29.52,SSW,213,9.0,24.0,81,0.00,,,0.01,Wunderground v.1.15,2013-05-28 16:35:00,
2013-05-28 11:45:00,77.9,71.2,29.52,WSW,239,10.0,24.0,80,0.00,,,0.01,Wunderground v.1.15,2013-05-28 16:45:00,
2013-05-28 11:55:00,77.7,70.7,29.52,SSW,210,12.0,12.0,79,0.00,,,0.01,Wunderground v.1.15,2013-05-28 16:55:00,
2013-05-28 12:00:00,78.3,71.2,29.52,South,185,11.0,11.0,79,0.00,,,0.01,Wunderground v.1.15,2013-05-28 17:00:00,
2013-05-28 12:10:00,78.3,70.5,29.53,SW,216,13.0,13.0,77,0.00,,,0.01,Wunderground v.1.15,2013-05-28 17:10:00,
2013-05-28 12:15:00,78.5,71.1,29.53,SW,226,11.0,21.0,78,0.00,,,0.01,Wunderground v.1.15,2013-05-28 17:15:00,
2013-05-28 12:25:00,78.3,70.9,29.54,SW,232,12.0,15.0,78,0.00,,,0.01,Wunderground v.1.15,2013-05-28 17:25:00,
2013-05-28 12:35:00,77.9,70.9,29.55,SW,223,11.0,21.0,79,0.00,,,0.01,Wunderground v.1.15,2013-05-28 17:35:00,
2013-05-28 12:40:00,78.6,70.8,29.55,SSW,196,11.0,21.0,77,0.00,,,0.01,Wunderground v.1.15,2013-05-28 17:40:00,
2013-05-28 12:50:00,79.2,71.4,29.54,SSW,208,10.0,10.0,77,0.00,,,0.01,Wunderground v.1.15,2013-05-28 17:50:00,
2013-05-28 13:00:00,79.6,71.8,29.54,SSW,198,6.0,20.0,77,0.00,,,0.01,Wunderground v.1.15,2013-05-28 18:00:00,
2013-05-28 13:05:00,79.6,71.8,29.54,SSW,192,7.0,20.0,77,0.00,,,0.01,Wunderground v.1.15,2013-05-28 18:05:00,
2013-05-28 13:10:00,79.4,71.2,29.54,SSE,151,8.0,8.0,76,0.00,,,0.01,Wunderground v.1.15,2013-05-28 18:10:00,
2013-05-28 13:20:00,80.1,71.5,29.53,SE,131,6.0,6.0,75,0.00,,,0.01,Wunderground v.1.15,2013-05-28 18:20:00,
2013-05-28 13:30:00,79.8,71.6,29.53,SE,143,5.0,17.0,76,0.00,,,0.01,Wunderground v.1.15,2013-05-28 18:30:00,
2013-05-28 13:40:00,78.8,70.6,29.55,SSE,152,8.0,8.0,76,0.00,,,0.01,Wunderground v.1.15,2013-05-28 18:40:00,
2013-05-28 13:45:00,79.0,71.2,29.55,SE,145,7.0,17.0,77,0.00,,,0.01,Wunderground v.1.15,2013-05-28 18:45:00,
2013-05-28 13:55:00,79.6,71.0,29.55,SE,131,5.0,17.0,75,0.00,,,0.01,Wunderground v.1.15,2013-05-28 18:55:00,
2013-05-28 14:00:00,79.4,71.2,29.55,SE,141,4.0,17.0,76,0.00,,,0.01,Wunderground v.1.15,2013-05-28 19:00:00,
2013-05-28 14:10:00,79.2,71.0,29.55,SSE,161,4.0,4.0,76,0.00,,,0.01,Wunderground v.1.15,2013-05-28 19:10:00,
2013-05-28 14:15:00,79.4,71.2,29.55,SSE,164,4.0,6.0,76,0.00,,,0.01,Wunderground v.1.15,2013-05-28 19:15:00,
2013-05-28 14:25:00,79.8,71.2,29.55,SE,141,5.0,7.0,75,0.00,,,0.01,Wunderground v.1.15,2013-05-28 19:25:00,
2013-05-28 14:35:00,80.7,71.6,29.55,SSW,196,5.0,11.0,74,0.00,,,0.01,Wunderground v.1.15,2013-05-28 19:35:00,
2013-05-28 14:40:00,80.3,71.3,29.55,SSE,164,8.0,8.0,74,0.00,,,0.01,Wunderground v.1.15,2013-05-28 19:40:00,
2013-05-28 14:50:00,80.1,71.1,29.55,SSE,168,6.0,6.0,74,0.00,,,0.01,Wunderground v.1.15,2013-05-28 19:50:00,
2013-05-28 14:55:00,80.3,71.3,29.55,SE,127,6.0,9.0,74,0.00,,,0.01,Wunderground v.1.15,2013-05-28 19:55:00,
2013-05-28 15:05:00,81.2,71.7,29.53,SE,144,8.0,13.0,73,0.00,,,0.01,Wunderground v.1.15,2013-05-28 20:05:00,
2013-05-28 15:15:00,80.9,71.0,29.53,SE,128,8.0,13.0,72,0.00,,,0.01,Wunderground v.1.15,2013-05-28 20:15:00,
2013-05-28 15:20:00,81.1,71.2,29.52,SSE,154,8.0,8.0,72,0.00,,,0.01,Wunderground v.1.15,2013-05-28 20:20:00,
2013-05-28 15:30:00,80.1,70.7,29.52,SSE,164,7.0,17.0,73,0.00,,,0.01,Wunderground v.1.15,2013-05-28 20:30:00,
2013-05-28 15:35:00,79.8,70.8,29.53,SE,143,6.0,17.0,74,0.00,,,0.01,Wunderground v.1.15,2013-05-28 20:35:00,
2013-05-28 15:45:00,79.4,70.8,29.53,SSE,168,6.0,17.0,75,0.00,,,0.01,Wunderground v.1.15,2013-05-28 20:45:00,
2013-05-28 15:55:00,79.0,70.4,29.52,SSE,148,6.0,7.0,75,0.00,,,0.01,Wunderground v.1.15,2013-05-28 20:55:00,
2013-05-28 16:00:00,78.8,70.2,29.52,SE,145,8.0,8.0,75,0.00,,,0.01,Wunderground v.1.15,2013-05-28 21:00:00,
2013-05-28 16:10:00,78.5,70.3,29.53,South,175,6.0,17.0,76,0.00,,,0.01,Wunderground v.1.15,2013-05-28 21:10:00,
2013-05-28 16:15:00,78.3,70.1,29.53,SE,137,6.0,17.0,76,0.00,,,0.01,Wunderground v.1.15,2013-05-28 21:15:00,
2013-05-28 16:25:00,78.1,69.9,29.53,SSE,154,4.0,17.0,76,0.00,,,0.01,Wunderground v.1.15,2013-05-28 21:25:00,
2013-05-28 16:35:00,78.1,70.3,29.54,South,181,2.0,17.0,77,0.00,,,0.01,Wunderground v.1.15,2013-05-28 21:35:00,
2013-05-28 16:40:00,77.9,70.1,29.54,South,181,1.0,1.0,77,0.00,,,0.01,Wunderground v.1.15,2013-05-28 21:40:00,
2013-05-28 16:50:00,77.9,70.1,29.53,SSE,150,2.0,11.0,77,0.00,,,0.01,Wunderground v.1.15,2013-05-28 21:50:00,
2013-05-28 17:00:00,77.7,69.9,29.53,SSE,150,6.0,6.0,77,0.00,,,0.01,Wunderground v.1.15,2013-05-28 22:00:00,
2013-05-28 17:10:00,77.4,70.0,29.53,SSE,158,3.0,11.0,78,0.00,,,0.01,Wunderground v.1.15,2013-05-28 22:10:00,
2013-05-28 17:15:00,77.0,69.6,29.53,South,191,3.0,11.0,78,0.00,,,0.01,Wunderground v.1.15,2013-05-28 22:15:00,
2013-05-28 17:25:00,76.7,69.7,29.52,SSE,152,7.0,7.0,79,0.00,,,0.01,Wunderground v.1.15,2013-05-28 22:25:00,
2013-05-28 17:30:00,76.5,69.5,29.52,SSE,148,7.0,7.0,79,0.00,,,0.01,Wunderground v.1.15,2013-05-28 22:30:00,
2013-05-28 17:40:00,76.1,69.5,29.50,SSE,155,8.0,8.0,80,0.00,,,0.01,Wunderground v.1.15,2013-05-28 22:40:00,
2013-05-28 17:50:00,76.0,69.4,29.53,South,188,5.0,15.0,80,0.00,,,0.01,Wunderground v.1.15,2013-05-28 22:50:00,
2013-05-28 17:55:00,76.0,69.7,29.53,SSW,213,6.0,15.0,81,0.00,,,0.01,Wunderground v.1.15,2013-05-28 22:55:00,
2013-05-28 18:05:00,75.8,69.6,29.55,SW,223,7.0,15.0,81,0.00,,,0.01,Wunderground v.1.15,2013-05-28 23:05:00,
2013-05-28 18:15:00,75.4,69.5,29.55,SSE,151,4.0,15.0,82,0.00,,,0.01,Wunderground v.1.15,2013-05-28 23:15:00,
2013-05-28 18:20:00,75.3,69.4,29.53,SE,144,2.0,2.0,82,0.00,,,0.01,Wunderground v.1.15,2013-05-28 23:20:00,
2013-05-28 18:30:00,75.3,69.8,29.53,SE,134,5.0,5.0,83,0.00,,,0.01,Wunderground v.1.15,2013-05-28 23:30:00,
2013-05-28 18:40:00,75.3,69.8,29.51,SSE,167,5.0,13.0,83,0.00,,,0.02,Wunderground v.1.15,2013-05-28 23:40:00,
2013-05-28 18:45:00,75.1,69.6,29.51,SSE,155,6.0,13.0,83,0.10,,,0.03,Wunderground v.1.15,2013-05-28 23:45:00,
2013-05-28 18:55:00,74.7,69.2,29.52,ESE,113,5.0,11.0,83,0.22,,,0.06,Wunderground v.1.15,2013-05-28 23:55:00,
2013-05-28 19:00:00,69.6,61.7,29.52,WNW,292,10.0,20.0,76,2.42,,,0.12,Wunderground v.1.15,2013-05-29 00:00:00,
2013-05-28 19:10:00,65.3,59.7,29.55,NW,312,1.0,1.0,82,0.19,,,0.21,Wunderground v.1.15,2013-05-29 00:10:00,
2013-05-28 19:20:00,66.0,58.9,29.56,NW,306,0.0,41.0,78,0.07,,,0.22,Wunderground v.1.15,2013-05-29 00:20:00,